GW0720 Weather Reports


time (UTC)temp
C
wind
direction
speed
KPH
gust
KPH
rain 1hr
cm
rain 24hr
cm
rain mn
cm
humidity
%
barometer
mb
20260507214600 11 0 0.0 1.6 0.03 0.51 0.51 91 1011.0
20260507213122 11 57 0.0 3.2 0.10 0.51 0.51 90 1010.9
20260507211556 11 0 0.0 3.2 0.15 0.51 0.51 92 1010.7
20260507204555 11 0 0.0 1.6 0.20 0.48 0.48 89 1011.3
20260507203054 12 0 0.0 1.6 0.15 0.41 0.41 91 1011.1
20260507201609 12 0 0.0 0.0 0.10 0.36 0.36 90 1011.3
20260507200105 12 0 0.0 3.2 0.10 0.36 0.36 88 1011.5
20260507194552 12 0 0.0 1.6 0.03 0.28 0.28 88 1011.3
20260507193055 12 0 0.0 4.8 0.00 0.25 0.25 85 1011.7
20260507191555 13 0 0.0 3.2 0.00 0.25 0.25 81 1011.7
20260507190057 13 0 0.0 3.2 0.00 0.25 0.25 79 1011.6
20260507184551 13 0 0.0 3.2 0.00 0.28 0.25 76 1011.6
20260507183101 13 245 0.0 3.2 0.00 0.28 0.25 78 1011.6
20260507181607 13 0 0.0 6.4 0.00 0.28 0.25 75 1011.9
20260507180057 13 55 0.0 4.8 0.00 0.28 0.25 75 1011.6
20260507174602 13 58 1.6 8.0 0.00 0.28 0.25 79 1012.0
20260507173101 13 223 1.6 8.0 0.00 0.28 0.25 77 1012.4
20260507171605 13 257 0.0 4.8 0.00 0.28 0.25 80 1012.2
20260507170059 13 0 0.0 4.8 0.00 0.28 0.25 78 1012.5
20260507164603 13 0 0.0 6.4 0.00 0.28 0.25 79 1012.7
20260507163057 13 0 1.6 11.3 0.00 0.28 0.25 81 1012.7
20260507161608 13 0 0.0 11.3 0.00 0.28 0.25 81 1012.6
20260507160058 13 205 1.6 11.3 0.00 0.28 0.25 80 1012.9
20260507154555 13 129 1.6 6.4 0.00 0.28 0.25 80 1012.8
20260507153110 13 0 0.0 12.9 0.00 0.28 0.25 82 1012.9
20260507151559 13 0 0.0 4.8 0.00 0.28 0.25 84 1012.8
20260507150054 13 0 0.0 14.5 0.00 0.28 0.25 80 1013.1
20260507144554 13 0 0.0 4.8 0.00 0.48 0.25 80 1012.7
20260507143102 13 0 1.6 9.7 0.00 0.48 0.25 78 1012.7
20260507141558 13 250 1.6 6.4 0.00 0.48 0.25 81 1012.9
20260507140057 13 0 1.6 6.4 0.00 0.48 0.25 79 1013.1
20260507134606 13 336 1.6 11.3 0.00 0.48 0.25 83 1013.0
20260507133058 13 0 1.6 11.3 0.00 0.48 0.25 85 1012.6
20260507131559 13 309 1.6 14.5 0.00 0.48 0.25 84 1012.6
20260507130107 13 0 0.0 12.9 0.00 0.48 0.25 86 1012.5
20260507124615 13 0 0.0 6.4 0.00 0.48 0.25 91 1012.5
20260507123107 13 0 0.0 4.8 0.00 0.48 0.25 91 1012.6
20260507121609 13 243 0.0 4.8 0.00 0.48 0.25 91 1012.3
20260507120104 12 0 0.0 6.4 0.00 0.48 0.25 91 1012.3
20260507114555 12 273 0.0 8.0 0.00 0.48 0.25 91 1012.6
20260507113055 12 0 0.0 3.2 0.00 0.48 0.25 92 1012.4
20260507111555 12 0 0.0 4.8 0.00 0.48 0.25 92 1012.1
20260507110056 12 0 0.0 3.2 0.03 0.48 0.25 92 1012.1
20260507104615 12 0 1.6 4.8 0.03 0.48 0.25 92 1011.8
20260507103057 13 0 0.0 0.0 0.10 0.48 0.25 92 1011.6
20260507101600 13 0 0.0 11.3 0.20 0.48 0.25 91 1011.3
20260507100111 13 112 0.0 3.2 0.20 0.46 0.23 92 1011.8
20260507094555 13 168 0.0 4.8 0.23 0.46 0.23 92 1011.7
20260507093100 13 0 0.0 8.0 0.13 0.36 0.13 92 1012.0
20260507091600 14 0 0.0 12.9 0.05 0.28 0.05 91 1011.7
20260507090054 14 0 1.6 12.9 0.03 0.25 0.03 89 1011.5
20260507084602 15 0 1.6 16.1 0.00 0.23 0.00 88 1011.3
20260507083108 16 261 4.8 14.5 0.00 0.23 0.00 85 1011.3
20260507081604 18 242 3.2 11.3 0.00 0.23 0.00 87 1010.8
20260507080107 19 0 0.0 3.2 0.00 0.23 0.00 88 1010.6
20260507074605 19 0 0.0 3.2 0.00 0.23 0.00 87 1009.9
20260507073100 19 0 0.0 4.8 0.00 0.23 0.00 87 1010.3
20260507071551 19 0 0.0 3.2 0.00 0.23 0.00 87 1010.2
20260507070051 19 0 0.0 4.8 0.00 0.23 0.00 87 1010.2
20260507064552 19 0 0.0 3.2 0.00 0.23 0.00 87 1009.9
20260507063052 20 0 0.0 3.2 0.00 0.23 0.00 86 1009.7
20260507061553 20 0 0.0 1.6 0.00 0.23 0.00 86 1009.4
20260507060057 20 0 0.0 4.8 0.00 0.23 0.00 85 1009.5
20260507054553 20 0 0.0 4.8 0.00 0.23 0.00 84 1009.9
20260507053055 20 319 0.0 8.0 0.00 0.23 0.00 84 1009.7
20260507051555 20 18 0.0 6.4 0.00 0.23 0.00 84 1010.0
20260507050052 20 0 0.0 4.8 0.00 0.23 0.00 84 1010.6
20260507044554 20 0 0.0 4.8 0.00 0.23 0.00 84 1010.8
20260507043053 20 0 0.0 12.9 0.00 0.23 0.00 84 1011.0
20260507041555 20 0 0.0 11.3 0.00 0.23 0.00 84 1011.0
20260507040052 20 11 0.0 11.3 0.00 0.23 0.00 85 1010.7
20260507034556 20 350 0.0 3.2 0.00 0.23 0.23 86 1011.0
20260507033101 19 0 0.0 4.8 0.00 0.23 0.23 88 1011.0
20260507031551 19 0 0.0 1.6 0.00 0.23 0.23 88 1010.6
20260507030054 18 61 0.0 3.2 0.00 0.23 0.23 89 1010.4
20260507024613 18 0 0.0 3.2 0.00 0.23 0.23 89 1010.2
20260507023054 18 0 0.0 3.2 0.00 0.23 0.23 90 1010.6
20260507021554 18 0 0.0 1.6 0.00 0.23 0.23 90 1010.7
20260507020109 18 0 0.0 0.0 0.00 0.23 0.23 90 1011.0
20260507014604 18 0 0.0 1.6 0.00 0.23 0.23 90 1011.1
20260507013054 18 0 0.0 0.0 0.00 0.23 0.23 90 1011.0
20260507011553 18 0 0.0 0.0 0.00 0.23 0.23 89 1010.9
20260507010056 18 0 0.0 0.0 0.00 0.23 0.23 87 1010.8
20260507004557 19 0 0.0 0.0 0.00 0.23 0.23 86 1010.9
20260507003058 19 0 0.0 0.0 0.00 0.23 0.23 85 1011.0
20260507001601 20 0 0.0 3.2 0.00 0.23 0.23 83 1011.0
20260506234609 21 0 0.0 9.7 0.00 0.23 0.23 81 1010.6
20260506231602 21 56 0.0 6.4 0.00 0.23 0.23 79 1010.6
20260506230059 21 47 0.0 4.8 0.00 0.23 0.23 78 1010.7
20260506224554 21 0 0.0 11.3 0.00 0.23 0.23 79 1010.7
20260506223057 21 0 1.6 6.4 0.00 0.23 0.23 78 1010.6
20260506221553 21 0 0.0 6.4 0.00 0.23 0.23 79 1010.7
20260506220055 21 73 0.0 8.0 0.00 0.23 0.23 77 1010.5